Lid_Strength_Index
21 22 22 22 21 21 20 20 19 19 18 18 18 18 17 17 17 17 17 17 16 14 10 8 6 6 8 8 9 9 10 11 5 11 8 3 3 4 4 3 5 4 5
22 22 23 22 22 22 21 20 19 19 19 18 18 18 18 17 18 18 18 17 16 14 12 11 6 6 9 10 10 10 10 10 5 8 6 4 4 4 4 4 5 4 4
23 23 23 23 23 22 21 20 20 20 19 19 19 19 18 18 18 18 18 17 16 14 12 11 8 6 10 11 10 10 11 7 3 6 6 4 4 4 4 5 5 4 4
24 24 24 23 23 22 21 21 21 21 21 20 20 19 18 19 19 18 18 18 16 14 13 11 10 7 10 11 11 12 11 6 5 6 6 5 5 4 5 6 6 5 8
25 25 24 23 23 22 22 22 22 22 21 21 20 18 19 20 19 18 18 18 16 15 13 12 10 10 9 10 12 14 12 11 6 6 7 6 6 6 7 6 6 6 7
25 24 24 24 23 23 23 23 23 22 22 21 19 19 20 19 17 15 15 16 15 15 13 12 11 12 11 10 12 11 11 11 7 6 7 7 8 7 6 6 6 7 9
25 26 26 25 25 25 24 25 24 24 23 21 19 19 20 19 16 15 14 15 14 15 14 12 14 13 13 11 12 12 11 10 5 6 8 7 9 6 6 7 8 8 8
26 27 26 26 27 26 26 26 25 24 22 20 20 20 20 19 15 14 14 15 15 15 14 14 15 14 13 12 14 14 13 8 6 5 6 6 7 6 6 6 8 11 11
27 27 27 27 28 28 29 27 25 24 23 22 20 21 22 21 16 14 13 15 15 15 14 13 14 15 13 13 14 15 14 10 7 7 6 6 6 6 6 8 10 11 12
28 28 27 28 30 30 28 26 25 24 22 21 22 21 20 20 16 13 12 14 16 16 15 14 14 14 13 13 13 14 14 12 8 11 8 7 7 7 8 7 8 9 10
28 28 29 29 30 29 26 26 26 24 22 24 23 22 21 18 17 14 12 13 15 15 15 14 14 13 13 12 12 13 14 11 8 10 8 8 8 7 7 7 7 7 9
29 31 31 32 29 26 28 27 25 24 24 24 24 22 20 19 17 14 13 13 12 14 14 13 14 12 11 10 11 11 11 11 8 8 8 9 9 8 8 7 7 6 6
34 35 33 30 28 27 27 27 25 23 23 23 22 22 22 20 17 16 16 14 13 14 12 12 13 11 10 11 11 11 12 11 9 9 9 8 8 8 8 9 9 11 12
37 33 29 29 28 27 26 25 24 23 23 22 23 24 24 20 20 19 17 16 15 15 15 15 11 11 11 12 13 12 11 9 9 9 9 8 8 8 9 9 10 10 11
32 29 30 29 29 27 25 24 22 21 20 22 23 23 22 23 20 16 15 16 17 17 16 16 16 13 12 13 13 12 10 9 9 9 9 10 10 10 9 9 9 10 10
32 31 30 29 29 27 26 24 20 19 18 18 19 19 21 19 17 17 16 16 15 14 14 16 16 12 13 13 13 12 9 9 9 9 9 10 10 10 10 10 10 11 10
38 32 31 29 29 28 27 26 27 24 21 20 21 20 20 19 19 19 19 19 18 19 19 22 19 14 11 11 11 10 9 8 9 9 9 10 10 10 11 11 11 11 10
40 31 31 31 31 29 27 27 26 28 29 28 24 22 21 21 21 20 21 24 27 26 25 24 25 24 23 21 10 9 9 9 9 9 10 11 11 11 11 11 11 11 11
33 33 32 31 31 29 28 27 27 28 29 29 28 27 24 24 23 23 23 28 29 28 27 25 26 25 25 24 23 11 10 10 10 10 11 11 11 11 11 11 10 11 11
36 30 30 34 31 30 29 29 28 28 29 29 29 30 25 29 31 30 29 29 29 28 27 25 26 26 25 25 24 23 11 11 11 11 11 11 11 11 11 11 11 11 11
36 36 31 34 34 31 30 30 29 29 30 29 29 28 21 30 31 31 30 29 28 27 27 25 25 26 24 25 25 25 22 11 10 10 11 11 11 12 11 11 11 11 11
38 38 38 39 32 31 31 30 29 29 30 30 29 28 24 30 30 31 30 29 28 26 25 24 24 25 25 24 25 26 25 24 22 16 11 11 11 11 11 10 11 11 12
34 34 34 35 34 32 31 32 30 29 30 31 30 30 29 30 30 30 30 30 28 26 25 25 23 25 24 24 23 25 26 26 24 22 17 12 11 11 11 11 11 11 12
35 35 34 36 36 34 34 33 31 30 30 30 31 30 30 29 30 30 30 29 28 27 26 25 24 24 24 24 23 23 25 25 24 23 20 16 13 13 12 11 11 11 11
40 37 37 37 41 38 36 36 32 34 31 30 31 31 31 30 29 30 29 29 28 27 27 25 25 23 23 24 24 23 23 25 25 24 23 22 22 20 18 14 13 13 13
37 36 38 37 37 39 39 37 37 34 33 31 31 32 32 31 30 30 30 29 29 28 27 26 26 25 23 23 23 23 21 22 25 25 25 25 25 25 23 22 21 20 18